FW7261 Weather Reports


time (UTC)temp
C
wind
direction
speed
KPH
gust
KPH
rain 1hr
cm
rain 24hr
cm
rain mn
cm
humidity
%
barometer
mb
20260507150112 12 220 3.2 11.3 0.00 1.45 0.56 83 1015.5
20260507145112 12 220 3.2 11.3 0.00 1.45 0.56 83 1015.5
20260507144112 12 220 3.2 11.3 0.00 1.45 0.56 83 1015.5
20260507143112 12 220 3.2 11.3 0.00 1.45 0.56 83 1015.5
20260507142112 12 220 3.2 11.3 0.00 1.45 0.56 83 1015.5
20260507140111 12 220 3.2 11.3 0.00 1.45 0.56 83 1015.5
20260507135112 12 220 3.2 11.3 0.00 1.45 0.56 83 1015.5
20260507134111 12 220 3.2 11.3 0.00 1.45 0.56 83 1015.5
20260507132112 12 220 3.2 11.3 0.00 1.45 0.56 83 1015.5
20260507131111 12 220 3.2 11.3 0.00 1.45 0.56 83 1015.5
20260507130111 12 220 3.2 11.3 0.00 1.45 0.56 83 1015.5
20260507125111 12 220 3.2 11.3 0.00 1.45 0.56 83 1015.5
20260507124111 12 220 3.2 11.3 0.00 1.45 0.56 83 1015.5
20260507123111 12 220 3.2 11.3 0.00 1.45 0.56 83 1015.5
20260507121111 12 220 3.2 11.3 0.00 1.45 0.56 83 1015.5
20260507120111 12 220 3.2 11.3 0.00 1.45 0.56 83 1015.5
20260507115111 12 220 3.2 11.3 0.00 1.45 0.56 83 1015.5
20260507114111 12 220 3.2 11.3 0.00 1.45 0.56 83 1015.5
20260507113111 12 220 3.2 11.3 0.00 1.45 0.56 83 1015.5
20260507112111 12 220 3.2 11.3 0.00 1.45 0.56 83 1015.5
20260507111111 12 220 3.2 11.3 0.00 1.45 0.56 83 1015.5
20260507110111 12 220 3.2 11.3 0.00 1.45 0.56 83 1015.5
20260507105111 12 220 3.2 11.3 0.00 1.45 0.56 83 1015.5
20260507104111 12 220 3.2 11.3 0.00 1.45 0.56 83 1015.5
20260507103111 12 220 3.2 11.3 0.00 1.45 0.56 83 1015.5
20260507101111 12 220 3.2 11.3 0.00 1.45 0.56 83 1015.5
20260507100111 12 220 3.2 11.3 0.00 1.45 0.56 83 1015.5
20260507095111 12 220 3.2 11.3 0.00 1.45 0.56 83 1015.5
20260507094111 12 220 3.2 11.3 0.00 1.45 0.56 83 1015.5
20260507093111 12 256 3.2 11.3 0.00 1.45 0.56 83 1015.4
20260507092112 12 265 0.0 3.2 0.00 1.45 0.56 84 1015.4
20260507091111 12 249 1.6 9.7 0.00 1.45 0.56 84 1015.4
20260507090111 12 234 1.6 8.0 0.00 1.45 0.56 85 1015.3
20260507084111 12 232 1.6 8.0 0.00 1.45 0.56 87 1015.2
20260507082111 11 256 0.0 1.6 0.00 1.45 0.56 89 1015.1
20260507081111 11 251 4.8 11.3 0.00 1.45 0.56 88 1015.1
20260507080111 11 248 1.6 8.0 0.00 1.45 0.56 90 1015.1
20260507075111 11 246 1.6 8.0 0.00 1.45 0.56 90 1015.0
20260507074111 10 238 1.6 4.8 0.00 1.45 0.56 91 1014.8
20260507071111 10 257 1.6 8.0 0.00 1.45 0.56 91 1014.7
20260507070112 10 247 1.6 8.0 0.00 1.45 0.56 92 1014.5
20260507065111 10 258 1.6 8.0 0.00 1.45 0.56 92 1014.6
20260507064111 10 220 4.8 11.3 0.03 1.45 0.56 92 1014.5
20260507063111 10 263 1.6 9.7 0.03 1.45 0.56 92 1014.5
20260507062111 10 241 1.6 8.0 0.03 1.45 0.56 93 1014.4
20260507061111 10 239 1.6 9.7 0.05 1.45 0.56 93 1014.4
20260507060111 10 256 3.2 11.3 0.05 1.45 0.56 92 1014.2
20260507055111 10 248 1.6 9.7 0.05 1.45 0.56 93 1014.3
20260507054111 10 222 3.2 8.0 0.03 1.45 0.53 92 1014.1
20260507053111 10 253 1.6 4.8 0.05 1.45 0.53 92 1014.1
20260507052111 10 232 1.6 8.0 0.05 1.45 0.53 92 1014.0
20260507050111 10 261 1.6 8.0 0.03 1.42 0.51 92 1013.6
20260507045111 10 260 0.0 3.2 0.05 1.42 0.51 92 1013.6
20260507044111 10 243 1.6 9.7 0.05 1.42 0.51 92 1013.5
20260507043111 10 235 1.6 8.0 0.03 1.40 0.51 93 1013.3
20260507042111 10 267 0.0 8.0 0.03 1.40 0.51 92 1013.3
20260507040111 10 247 1.6 11.3 0.05 1.40 0.51 92 1013.1
20260507035111 10 261 3.2 11.3 0.05 1.37 0.48 92 1013.0
20260507034111 10 244 1.6 11.3 0.05 1.37 0.48 92 1012.9
20260507032111 10 226 4.8 11.3 0.10 1.37 0.48 92 1012.7
20260507031111 10 260 6.4 14.5 0.10 1.37 0.46 92 1012.7
20260507030111 10 216 4.8 14.5 0.10 1.35 0.43 92 1012.6
20260507025111 10 197 6.4 14.5 0.15 1.35 0.43 92 1012.6
20260507024111 10 247 4.8 14.5 0.15 1.32 0.43 92 1012.5
20260507023111 9 226 4.8 17.7 0.15 1.30 0.41 92 1012.5
20260507022111 9 229 6.4 17.7 0.15 1.27 0.38 92 1012.4
20260507021111 9 242 4.8 12.9 0.15 1.27 0.36 92 1012.3
20260507020111 9 243 4.8 11.3 0.15 1.24 0.33 92 1012.3
20260507015111 9 204 8.0 16.1 0.13 1.19 0.30 92 1012.3
20260507014111 9 203 4.8 17.7 0.13 1.17 0.28 92 1012.2
20260507013112 9 229 6.4 14.5 0.10 1.17 0.25 91 1012.2
20260507012111 9 243 6.4 14.5 0.10 1.14 0.23 91 1012.1
20260507010111 9 224 6.4 12.9 0.05 1.09 0.20 91 1012.0
20260507005111 9 211 4.8 14.5 0.05 1.09 0.18 91 1012.0
20260507004111 10 168 6.4 16.1 0.05 1.07 0.15 91 1012.0
20260507003111 10 184 6.4 14.5 0.05 1.07 0.15 90 1012.0
20260507002111 10 244 9.7 19.3 0.05 1.04 0.15 90 1012.0
20260507001111 10 234 8.0 22.5 0.05 1.04 0.15 90 1012.0
20260507000111 10 250 6.4 16.1 0.05 1.04 0.15 90 1011.9
20260506234111 10 192 6.4 14.5 0.05 0.99 0.10 89 1012.0
20260506233111 10 265 6.4 19.3 0.05 0.99 0.10 89 1012.1
20260506232111 10 212 6.4 16.1 0.05 0.99 0.08 89 1011.9
20260506231111 10 220 6.4 19.3 0.05 0.99 0.08 89 1011.9
20260506230111 10 212 6.4 19.3 0.08 0.99 0.08 89 1011.9
20260506224111 10 237 8.0 19.3 0.05 0.94 0.05 89 1011.9
20260506223111 10 114 8.0 17.7 0.05 0.94 0.05 89 1011.9
20260506222111 10 199 6.4 17.7 0.05 0.91 0.03 89 1011.7
20260506221111 10 185 9.7 25.7 0.05 0.91 0.03 88 1011.6
20260506220111 10 197 11.3 22.5 0.05 0.89 0.00 88 1011.5
20260506215111 10 243 11.3 27.4 0.05 0.89 0.89 88 1011.4
20260506214111 10 280 8.0 17.7 0.05 0.89 0.89 88 1011.4
20260506212111 10 231 9.7 22.5 0.08 0.89 0.89 89 1011.3
20260506210111 10 235 4.8 19.3 0.10 0.86 0.86 90 1011.2
20260506205111 10 243 3.2 11.3 0.13 0.84 0.84 90 1011.2
20260506204111 10 204 6.4 16.1 0.15 0.84 0.84 90 1011.1
20260506203111 10 258 6.4 16.1 0.15 0.81 0.81 90 1011.2
20260506202111 10 244 4.8 14.5 0.15 0.79 0.79 90 1011.1
20260506200111 10 237 8.0 24.1 0.15 0.76 0.76 89 1011.0
20260506194111 10 190 4.8 16.1 0.15 0.71 0.71 89 1010.8
20260506193111 10 245 3.2 11.3 0.18 0.69 0.69 89 1010.6
20260506192111 10 254 1.6 8.0 0.18 0.66 0.66 90 1010.5
20260506191111 10 254 3.2 12.9 0.20 0.64 0.64 89 1010.4
20260506184111 11 220 4.8 12.9 0.20 0.53 0.53 90 1010.1
20260506183111 11 193 6.4 17.7 0.15 0.51 0.51 90 1010.0
20260506182111 11 193 6.4 14.5 0.15 0.48 0.48 90 1009.9
20260506181111 11 245 8.0 16.1 0.15 0.43 0.43 90 1009.8
20260506180111 11 204 8.0 25.7 0.15 0.41 0.41 90 1009.5
20260506175111 11 257 6.4 17.7 0.15 0.38 0.38 90 1009.4
20260506174111 11 196 9.7 25.7 0.13 0.33 0.33 90 1009.3
20260506173111 11 217 8.0 22.5 0.15 0.33 0.33 90 1009.1
20260506172111 11 235 6.4 17.7 0.15 0.33 0.33 89 1008.9
20260506171111 11 202 6.4 19.3 0.13 0.28 0.28 90 1008.8
20260506170111 11 223 6.4 17.7 0.15 0.25 0.25 89 1008.8
20260506165111 11 218 8.0 19.3 0.15 0.23 0.23 89 1008.7
20260506164111 11 164 9.7 24.1 0.15 0.23 0.23 89 1008.7
20260506163111 11 197 9.7 19.3 0.15 0.20 0.20 89 1008.8
20260506162110 11 254 8.0 22.5 0.13 0.18 0.18 88 1008.7
20260506161111 11 220 6.4 17.7 0.13 0.15 0.15 88 1008.9
20260506160109 11 246 4.8 16.1 0.08 0.13 0.13 87 1008.8
20260506155109 11 244 3.2 11.3 0.05 0.10 0.10 87 1008.7
20260506153109 11 219 8.0 16.1 0.03 0.05 0.05 86 1008.6
20260506152109 11 251 6.4 19.3 0.03 0.05 0.05 85 1008.6